• In Uzbekistan
  • List of Countries
  • For 7 days
  • Water Temperature
  • Satellite Maps
  • Weather Map
  • Weather Widgets
  • user-avatar
    Login

    Hourly Weather Vanadzor

    Today, 9 December, Friday

    Time Temperature Precipitation Wind Pressure Humidity
    00:00 -15°C° 0 mm 1 mps 636 mmHg 91%
    01:00 -15°C° 0 mm 1 mps 635 mmHg 91%
    02:00 -15°C° 0 mm 1 mps 635 mmHg 91%
    03:00 -15°C° 0 mm 1 mps 635 mmHg 91%
    04:00 -15°C° 0 mm 1 mps 635 mmHg 91%
    05:00 -14°C° 0 mm 1 mps 634 mmHg 91%
    06:00 -14°C° 0 mm 1 mps 634 mmHg 90%
    07:00 -12°C° 0 mm 1 mps 635 mmHg 88%
    08:00 -10°C° 0 mm 2 mps 635 mmHg 87%
    09:00 -8°C° 0 mm 2 mps 635 mmHg 85%
    10:00 -7°C° 0 mm 2 mps 635 mmHg 83%
    11:00 -6°C° 0 mm 2 mps 635 mmHg 82%
    12:00 -5°C° 0 mm 2 mps 634 mmHg 80%
    13:00 -5°C° 0 mm 2 mps 634 mmHg 81%
    14:00 -5°C° 0 mm 2 mps 634 mmHg 82%
    15:00 -4°C° 0 mm 2 mps 633 mmHg 83%
    16:00 -6°C° 0 mm 2 mps 633 mmHg 85%
    17:00 -8°C° 0 mm 2 mps 632 mmHg 87%
    18:00 -10°C° 0 mm 2 mps 632 mmHg 90%
    19:00 -10°C° 0 mm 2 mps 632 mmHg 90%
    20:00 -10°C° 0 mm 2 mps 632 mmHg 90%
    21:00 -10°C° 0 mm 2 mps 632 mmHg 90%
    22:00 -10°C° 0 mm 2 mps 632 mmHg 90%
    23:00 -10°C° 0 mm 2 mps 632 mmHg 90%

    Tomorrow, 10 December, Saturday

    Time Temperature Precipitation Wind Pressure Humidity
    00:00 -10°C° 0 mm 2 mps 632 mmHg 90%
    01:00 -9°C° 0 mm 2 mps 632 mmHg 90%
    02:00 -9°C° 0 mm 2 mps 632 mmHg 90%
    03:00 -8°C° 0 mm 2 mps 632 mmHg 90%
    04:00 -9°C° 0 mm 2 mps 631 mmHg 90%
    05:00 -9°C° 0 mm 2 mps 631 mmHg 91%
    06:00 -9°C° 0 mm 2 mps 631 mmHg 91%
    07:00 -8°C° 0 mm 2 mps 631 mmHg 90%
    08:00 -7°C° 0 mm 2 mps 631 mmHg 88%
    09:00 -6°C° 0 mm 2 mps 631 mmHg 87%
    10:00 -4°C° 0 mm 2 mps 631 mmHg 85%
    11:00 -3°C° 0 mm 2 mps 631 mmHg 83%
    12:00 -1°C° 0 mm 2 mps 631 mmHg 82%
    13:00 -1°C° 0 mm 2 mps 631 mmHg 83%
    14:00 +1°C° 0 mm 1 mps 630 mmHg 84%
    15:00 +1°C° 0 mm 1 mps 630 mmHg 85%
    16:00 -1°C° 0.1 mm 1 mps 630 mmHg 88%
    17:00 -2°C° 0.1 mm 1 mps 629 mmHg 90%
    18:00 -3°C° 0.1 mm 1 mps 629 mmHg 92%
    19:00 -3°C° 0.1 mm 1 mps 629 mmHg 92%
    20:00 -5°C° 0.1 mm 2 mps 630 mmHg 92%
    21:00 -5°C° 0.1 mm 2 mps 630 mmHg 92%
    22:00 -5°C° 0.1 mm 2 mps 630 mmHg 92%
    23:00 -6°C° 0.1 mm 2 mps 630 mmHg 93%

    Day after tomorrow, 11 December, Sunday

    Time Temperature Precipitation Wind Pressure Humidity
    00:00 -7°C° 0.1 mm 2 mps 629 mmHg 93%
    01:00 -7°C° 0 mm 2 mps 629 mmHg 93%
    02:00 -8°C° 0 mm 2 mps 629 mmHg 92%
    03:00 -8°C° 0 mm 2 mps 629 mmHg 92%
    04:00 -8°C° 0.1 mm 2 mps 629 mmHg 92%
    05:00 -8°C° 0.1 mm 2 mps 630 mmHg 92%
    06:00 -8°C° 0.1 mm 2 mps 630 mmHg 91%
    07:00 -6°C° 0.1 mm 2 mps 630 mmHg 90%
    08:00 -5°C° 0.1 mm 2 mps 631 mmHg 89%
    09:00 -3°C° 0.1 mm 2 mps 632 mmHg 87%
    10:00 -3°C° 0.1 mm 2 mps 632 mmHg 85%
    11:00 -2°C° 0.1 mm 2 mps 632 mmHg 84%
    12:00 -1°C° 0.1 mm 2 mps 632 mmHg 82%
    13:00 -1°C° 0 mm 2 mps 632 mmHg 82%
    14:00 -1°C° 0 mm 2 mps 632 mmHg 83%
    15:00 +1°C° 0 mm 1 mps 632 mmHg 84%
    16:00 -1°C° 0 mm 1 mps 631 mmHg 86%
    17:00 -3°C° 0 mm 1 mps 631 mmHg 88%
    18:00 -6°C° 0 mm 1 mps 631 mmHg 91%
    19:00 -7°C° 0 mm 2 mps 631 mmHg 90%
    20:00 -7°C° 0 mm 2 mps 631 mmHg 89%
    21:00 -7°C° 0 mm 2 mps 631 mmHg 89%
    22:00 -7°C° 0 mm 2 mps 632 mmHg 89%
    23:00 -7°C° 0 mm 2 mps 632 mmHg 89%

    12 December, Monday

    Time Temperature Precipitation Wind Pressure Humidity
    00:00 -7°C° 0 mm 2 mps 632 mmHg 88%
    01:00 -7°C° 0 mm 2 mps 632 mmHg 89%
    02:00 -7°C° 0 mm 2 mps 632 mmHg 89%
    03:00 -7°C° 0 mm 2 mps 632 mmHg 89%
    04:00 -7°C° 0 mm 2 mps 632 mmHg 89%
    05:00 -7°C° 0 mm 2 mps 632 mmHg 89%
    06:00 -7°C° 0 mm 2 mps 631 mmHg 89%
    07:00 -6°C° 0 mm 2 mps 632 mmHg 88%
    08:00 -4°C° 0 mm 2 mps 632 mmHg 86%
    09:00 -3°C° 0 mm 2 mps 633 mmHg 84%
    10:00 -2°C° 0 mm 2 mps 633 mmHg 83%
    11:00 +1°C° 0 mm 2 mps 632 mmHg 82%
    12:00 +2°C° 0 mm 2 mps 632 mmHg 81%
    13:00 +2°C° 0 mm 2 mps 632 mmHg 82%
    14:00 +2°C° 0 mm 2 mps 631 mmHg 83%
    15:00 +3°C° 0 mm 1 mps 631 mmHg 84%
    16:00 -1°C° 0 mm 2 mps 631 mmHg 86%
    17:00 -3°C° 0 mm 2 mps 630 mmHg 88%
    18:00 -4°C° 0 mm 2 mps 630 mmHg 90%
    19:00 -5°C° 0 mm 2 mps 629 mmHg 90%
    20:00 -5°C° 0 mm 2 mps 629 mmHg 89%
    21:00 -5°C° 0 mm 2 mps 629 mmHg 89%
    22:00 -5°C° 0 mm 2 mps 629 mmHg 88%
    23:00 -4°C° 0 mm 2 mps 629 mmHg 88%

    13 December, Tuesday

    Time Temperature Precipitation Wind Pressure Humidity
    00:00 -4°C° 0 mm 2 mps 629 mmHg 88%
    01:00 -4°C° 0.1 mm 2 mps 629 mmHg 88%
    02:00 -4°C° 0.1 mm 2 mps 629 mmHg 89%
    03:00 -4°C° 0.1 mm 2 mps 629 mmHg 89%
    04:00 -4°C° 0.1 mm 2 mps 628 mmHg 89%
    05:00 -4°C° 0.1 mm 2 mps 628 mmHg 90%
    06:00 -4°C° 0.1 mm 2 mps 628 mmHg 90%
    07:00 -3°C° 0.1 mm 2 mps 628 mmHg 89%
    08:00 -2°C° 0.1 mm 2 mps 629 mmHg 87%
    09:00 -2°C° 0.1 mm 2 mps 629 mmHg 86%
    10:00 -1°C° 0.2 mm 2 mps 629 mmHg 85%
    11:00 +1°C° 0.2 mm 2 mps 628 mmHg 84%
    12:00 +2°C° 0.2 mm 2 mps 628 mmHg 83%
    13:00 +2°C° 0.2 mm 2 mps 628 mmHg 84%
    14:00 +2°C° 0.2 mm 2 mps 627 mmHg 85%
    15:00 +2°C° 0.2 mm 2 mps 627 mmHg 86%
    16:00 +1°C° 0.2 mm 2 mps 627 mmHg 88%
    17:00 -1°C° 0.2 mm 2 mps 627 mmHg 90%
    18:00 -2°C° 0.2 mm 2 mps 627 mmHg 92%
    19:00 -2°C° 0.3 mm 2 mps 627 mmHg 92%
    20:00 0°C° 0.3 mm 1 mps 627 mmHg 92%
    21:00 0°C° 0.3 mm 1 mps 627 mmHg 92%
    22:00 0°C° 0.2 mm 1 mps 627 mmHg 92%
    23:00 -1°C° 0.2 mm 1 mps 627 mmHg 93%

    14 December, Wednesday

    Time Temperature Precipitation Wind Pressure Humidity
    00:00 -1°C° 0.2 mm 1 mps 627 mmHg 93%
    01:00 -1°C° 0.3 mm 1 mps 627 mmHg 93%
    02:00 -1°C° 0.3 mm 1 mps 626 mmHg 93%
    03:00 -1°C° 0.3 mm 1 mps 626 mmHg 93%
    04:00 -1°C° 0.4 mm 1 mps 626 mmHg 93%
    05:00 -1°C° 0.4 mm 1 mps 626 mmHg 94%
    06:00 -1°C° 0.4 mm 1 mps 626 mmHg 94%
    07:00 0°C° 0.3 mm 1 mps 627 mmHg 94%
    08:00 0°C° 0.3 mm 1 mps 627 mmHg 93%
    09:00 0°C° 0.3 mm 0 mps 628 mmHg 92%
    10:00 +1°C° 0.6 mm 1 mps 627 mmHg 93%
    11:00 +1°C° 0.6 mm 1 mps 627 mmHg 93%
    12:00 +2°C° 0.6 mm 1 mps 627 mmHg 93%
    13:00 +1°C° 1 mm 1 mps 627 mmHg 94%
    14:00 +1°C° 1 mm 1 mps 627 mmHg 95%
    15:00 +1°C° 1 mm 1 mps 627 mmHg 97%
    16:00 0°C° 0.9 mm 1 mps 627 mmHg 97%
    17:00 -1°C° 0.9 mm 1 mps 627 mmHg 98%
    18:00 -1°C° 0.9 mm 1 mps 627 mmHg 98%
    19:00 -1°C° 0.7 mm 1 mps 627 mmHg 98%
    20:00 -2°C° 0.7 mm 1 mps 628 mmHg 98%
    21:00 -2°C° 0.7 mm 1 mps 628 mmHg 98%
    22:00 -2°C° 0.7 mm 1 mps 628 mmHg 98%
    23:00 -2°C° 0.7 mm 1 mps 628 mmHg 98%
    Show more